Flag for Brazil Weather past 2 weeks in Tabatinga, Amazonas, Brazil

Now
75 °F

Light rain. Low clouds.


Feels Like: 74 °F
Forecast: 73 / 88 °F
Wind: No wind

Location: Leticia / Vasquez Cobo

Current Time: Dec 18, 2014 at 7:40:39 AM

Latest Report: Dec 18, 2014 at 7:00 AM


Visibility: 4 mi

Pressure: 29.91 "Hg

Humidity: 94%

Dew point: 73 °F

Location of TabatingaLocation

Historic Weather in Tabatinga — Graph

°F

Tabatinga temperature yesterday

Maximum temperature yesterday: 91 °F (at 1:00 PM)
Minimum temperature yesterday: 73 °F (at 7:00 AM)
Average temperature yesterday: 84 °F

Past Weeks' High & Low Weather Summary

 TemperatureHumidityPressure
High91 °F (Dec 5, 1:00 PM)100% (Dec 3, 3:00 PM)29.95 "Hg (Dec 3, 3:00 PM)
Low73 °F (Dec 13, 5:00 AM)59% (Dec 6, 1:00 PM)28.81 "Hg (Dec 9, 12:00 AM)
Average80 °F89%29.80 "Hg
* Reported Dec 3 6:00 AM — Dec 18 6:00 AM, Tabatinga, Weather by CustomWeather, © 2014

Note: Actual official high and low records may vary slightly from our data, if they occured in-between our weather recording intervals... More about our weather records

Advertising

Tabatinga weather history for previous 24 hours

 ConditionsComfort  
Time TempWeatherWind HumidityBarometerVisibility
6:00 AM
Dec 18
75 °FLight rain. Low clouds.No wind94%29.86 "Hg4 mi
10:00 PM
Dec 17
79 °FPassing clouds.No wind100%29.83 "HgN/A
9:00 PM79 °FPassing clouds.No wind100%29.81 "HgN/A
8:00 PM81 °FPassing clouds.No wind94%29.78 "HgN/A
7:00 PM82 °FPassing clouds.2 mph94%29.75 "HgN/A
6:00 PM86 °FPassing clouds.No wind84%29.72 "HgN/A
5:00 PM90 °FHot.No wind75%29.71 "HgN/A
4:00 PM91 °FScattered showers. Passing clouds.3 mph67%29.73 "HgN/A
3:00 PM91 °FScattered clouds.3 mph71%29.75 "HgN/A
2:00 PM91 °FPartly sunny.3 mph71%29.78 "HgN/A
1:00 PM91 °FPartly sunny.3 mph67%29.82 "HgN/A
12:00 PM90 °FScattered clouds.N/A71%29.85 "HgN/A
11:00 AM90 °FPartly sunny.No wind71%29.88 "HgN/A
10:00 AM82 °FBroken clouds.2 mph84%29.92 "HgN/A
9:00 AM79 °FPartly sunny.3 mph89%29.93 "HgN/A
8:00 AM75 °FScattered showers. Broken clouds.3 mph100%29.94 "HgN/A
7:00 AM73 °FRain. Partly sunny.3 mph100%29.95 "Hg1 mi
Weather by CustomWeather, © 2014

See weather overviewHow to use our weather pages